Dewpoint
23 18 16 17 16 19 18 22 21 28 32 29 44 49 45 46 41 40 42 43 46 49 51 54 55 56 58 62 66 67 68 69 72 72 69 69 69 69 69 69 71 71 72 71
16 16 14 15 18 18 19 20 23 27 37 35 34 46 45 46 41 40 41 42 43 45 49 53 56 56 58 62 65 68 69 71 71 71 70 70 69 69 69 66 72 72 72 72
14 11 9 9 15 17 19 20 22 23 29 32 29 29 36 39 41 42 42 43 43 44 45 52 55 56 58 61 66 69 70 71 71 71 71 72 70 69 69 69 70 70 72 72
16 12 7 6 9 16 18 20 20 21 27 29 32 30 36 37 42 42 42 44 45 45 46 49 54 57 58 61 66 69 71 72 73 72 71 70 68 68 65 66 67 72 71 70
12 13 7 4 5 13 17 20 20 20 24 32 35 31 33 37 39 42 42 43 44 48 46 47 53 56 58 61 65 69 72 73 73 74 71 71 69 68 67 65 68 72 72 68
13 13 10 4 4 7 15 17 18 19 20 22 29 31 31 34 35 35 39 42 44 46 48 48 51 55 58 60 65 67 72 73 73 74 73 72 69 68 66 66 68 67 69 68
16 13 11 8 4 4 6 10 15 16 18 19 23 32 33 35 37 37 39 40 44 46 48 49 50 54 58 59 63 67 72 73 73 73 74 73 73 71 70 69 67 65 63 67
16 14 12 10 7 5 3 7 14 15 17 19 21 20 29 36 38 37 43 40 41 46 47 49 51 52 58 59 62 65 71 73 74 73 74 74 73 73 70 70 67 66 64 65
12 14 15 12 11 6 4 4 10 13 16 17 18 20 21 28 36 35 33 32 32 43 46 48 51 54 57 59 61 65 70 73 74 74 74 75 74 73 71 69 70 67 65 68
14 13 15 14 12 11 4 8 4 7 12 15 17 21 23 25 36 35 34 31 29 29 46 48 49 53 56 59 61 65 68 72 74 74 74 74 74 73 72 71 71 67 67 64
12 15 14 15 14 12 8 6 4 6 9 12 17 20 25 30 34 35 34 32 29 30 42 45 49 50 56 58 61 63 66 71 73 73 73 74 74 74 73 73 71 71 69 66
13 13 16 14 16 14 11 7 5 6 12 10 14 19 22 26 30 33 31 31 31 32 35 44 48 49 52 55 58 62 65 68 71 73 72 73 74 74 74 73 73 72 71 71
16 13 15 15 16 17 11 10 10 6 7 13 13 17 22 31 31 33 32 31 33 36 40 44 47 49 51 54 57 60 64 65 69 71 71 72 72 73 73 74 73 74 72 70
18 15 15 15 18 17 15 13 12 9 5 8 13 18 22 31 32 31 32 30 31 33 44 45 44 50 51 54 57 59 61 63 65 69 70 70 71 72 72 73 74 73 73 71
17 19 18 16 17 19 17 13 13 11 13 10 9 15 23 24 33 30 31 29 31 35 41 41 43 52 54 55 58 58 59 60 61 65 67 69 71 71 72 72 73 73 73 73
16 20 21 20 19 19 19 17 13 11 11 11 11 9 13 22 27 32 29 31 33 34 37 48 49 53 58 57 59 58 58 60 60 62 65 67 69 71 71 72 72 74 73 73
18 17 22 20 21 20 19 20 18 10 8 7 7 13 18 19 22 27 33 29 35 33 33 38 52 53 55 60 61 59 59 60 60 63 65 66 68 70 71 72 72 72 73 73
23 21 21 21 21 18 21 20 18 17 16 13 13 15 16 18 21 23 25 31 33 34 34 34 37 54 57 56 60 62 62 62 63 63 66 66 68 70 72 72 72 73 73 74
19 24 23 22 20 20 21 22 22 20 20 20 23 30 24 21 20 21 23 23 26 30 41 40 34 38 58 57 60 62 65 64 65 66 68 69 71 72 72 72 73 73 73 74
16 27 25 22 23 21 25 25 36 35 30 38 39 37 36 37 34 32 23 23 23 24 28 34 37 44 59 61 61 64 64 67 65 66 69 71 73 74 74 74 74 74 73 71
26 28 24 23 23 22 31 36 37 32 32 46 45 44 42 41 43 46 45 37 39 36 28 31 46 55 61 64 63 65 65 68 69 69 72 72 73 74 74 75 74 72 71 70
25 25 27 29 27 25 40 40 35 43 46 44 46 45 44 45 44 44 44 43 47 46 36 45 58 60 65 65 66 67 68 70 71 71 72 73 74 73 73 74 72 71 70 68
23 25 24 27 28 47 43 46 48 47 47 52 53 49 44 43 43 42 49 51 50 52 52 53 62 66 67 66 70 69 71 70 70 70 72 72 73 73 73 71 70 69 68 66
33 46 38 29 42 45 47 48 49 49 54 54 56 57 57 50 51 52 54 55 57 58 57 62 64 65 67 69 70 71 69 71 71 72 73 72 71 71 70 70 69 67 66 65
48 47 48 40 46 47 48 48 49 51 53 54 55 55 56 57 59 58 60 60 61 63 65 67 67 67 69 72 71 71 72 72 73 71 70 69 68 68 64 60 63 66 63 65
46 49 49 49 52 48 47 47 47 46 48 50 51 51 54 53 53 55 56 59 60 62 64 65 66 67 68 69 70 71 72 71 69 68 67 67 66 65 63 61 58 53 54 55
Wind_Speed
24 23 30 30 32 29 28 25 27 18 6 22 28 23 17 36 25 23 25 23 25 26 25 25 25 24 22 24 23 22 19 17 15 14 13 10 9 9 12 11 12 11 6 6
25 34 31 28 30 32 33 33 31 25 29 29 23 35 45 41 27 26 26 25 25 26 27 25 26 25 26 23 25 24 22 16 15 13 12 11 14 13 14 11 15 16 15 10
31 28 29 30 31 34 34 34 30 28 23 25 22 24 27 29 25 23 25 28 27 27 27 29 27 27 25 27 27 25 23 20 19 14 14 12 12 8 13 12 9 10 13 13
31 31 30 33 35 35 35 32 33 30 22 18 18 20 16 24 29 27 26 24 29 28 28 27 30 29 26 26 25 25 25 23 21 20 17 18 15 13 8 8 11 15 14 11
30 33 34 34 37 36 34 33 34 30 21 22 27 18 18 30 30 34 29 29 28 29 29 29 33 31 28 25 28 26 27 25 23 22 20 16 14 13 14 13 11 17 13 9
29 25 32 33 31 35 32 31 32 30 28 28 26 25 29 28 25 31 27 29 28 29 31 31 30 31 30 27 28 28 28 27 24 23 23 18 20 20 14 12 14 10 12 10
32 33 31 31 31 32 35 32 30 30 32 29 26 30 19 32 29 30 8 26 31 26 27 30 31 33 33 32 29 29 30 29 27 24 25 23 17 20 14 9 13 13 13 15
32 32 34 28 35 32 35 36 30 30 30 31 33 33 25 30 27 22 41 41 33 33 30 30 33 31 33 33 30 30 31 30 29 28 24 23 21 15 15 14 12 12 13 16
32 34 23 39 28 33 33 38 35 37 31 32 29 30 31 20 30 25 14 23 19 33 31 30 31 32 30 33 32 31 30 32 30 29 26 24 23 21 17 17 16 13 14 7
32 26 32 29 33 34 39 24 34 35 38 37 32 32 24 25 31 27 19 23 19 14 29 29 29 30 29 31 31 30 29 32 30 29 27 26 25 24 21 18 17 19 15 15
37 32 24 31 35 35 27 36 33 30 35 31 31 30 22 28 26 27 29 27 19 15 25 26 28 29 29 28 30 30 31 30 30 30 28 27 26 25 25 20 20 21 16 19
34 26 30 33 33 35 40 37 37 33 31 34 34 28 22 18 26 23 20 22 18 24 21 25 27 30 31 30 30 31 30 30 31 30 29 29 27 27 26 26 21 20 21 16
32 35 27 34 31 30 40 37 33 35 33 31 33 29 33 14 11 20 21 23 22 17 19 26 25 31 32 33 32 32 32 32 30 30 30 29 29 29 28 27 27 21 22 20
29 30 39 32 31 26 32 39 37 36 33 33 34 30 37 17 28 34 23 23 13 10 14 21 21 27 31 34 34 34 33 33 32 32 31 31 31 31 29 26 27 26 25 24
18 23 29 39 36 31 32 34 35 36 35 34 32 32 29 34 19 23 15 20 16 13 19 13 13 20 30 31 33 34 33 33 32 32 33 34 31 29 27 27 26 26 25 25
32 24 25 28 33 36 33 34 34 38 37 37 33 35 28 24 26 14 28 26 22 17 12 22 19 15 19 29 32 34 34 34 31 32 34 31 30 28 29 25 26 25 25 24
29 25 25 29 29 29 36 36 29 31 32 31 33 30 21 26 24 19 18 17 21 24 19 11 21 20 18 19 29 33 34 30 32 28 30 31 29 30 29 27 24 25 25 23
28 28 25 28 25 34 27 24 32 29 25 29 32 26 25 29 28 26 22 17 19 21 21 16 15 22 22 21 26 27 29 30 29 29 28 28 27 27 27 26 25 23 22 23
27 28 27 27 30 24 28 26 23 19 27 22 14 15 20 25 28 31 28 24 22 21 15 18 20 19 24 23 23 28 28 30 26 28 26 27 24 26 25 25 23 21 19 18
32 17 22 23 28 37 25 26 9 3 12 8 11 10 14 14 12 16 29 26 24 24 22 16 16 18 27 24 24 25 28 28 32 28 25 21 20 22 24 21 20 16 16 16
17 13 26 25 24 28 6 12 14 18 14 5 8 10 13 14 15 18 26 26 10 22 27 20 11 20 25 24 24 25 27 27 25 22 19 18 17 18 17 18 16 16 15 13
18 16 22 20 24 20 15 14 15 1 8 1 5 9 15 17 20 18 20 11 4 10 22 15 13 14 20 23 19 24 22 18 18 16 18 17 16 15 14 17 15 17 15 14
22 20 20 16 15 11 8 5 10 9 7 12 11 11 13 17 20 13 6 4 1 5 4 7 17 15 12 13 17 21 18 21 19 19 18 17 16 11 17 18 17 14 13 12
18 15 17 21 5 9 15 8 11 12 18 15 16 18 25 10 9 7 7 5 8 8 5 14 19 16 13 14 15 19 22 21 22 21 20 19 20 19 16 14 13 13 12 12
9 19 16 17 23 16 13 13 15 19 18 18 20 22 24 29 29 20 23 20 18 19 20 20 18 16 15 18 19 19 20 20 22 22 19 18 17 17 17 13 7 11 6 10
3 7 8 3 15 14 18 18 19 21 22 22 20 22 21 26 24 23 22 20 20 22 20 20 19 17 14 17 17 16 20 21 19 19 17 16 17 14 14 14 10 17 10 6
Wind_Direction
206 214 217 219 220 232 245 238 230 171 206 210 151 152 220 249 210 191 179 191 186 191 190 185 190 185 189 175 174 180 193 192 170 163 187 206 228 217 217 226 152 144 188 190
210 220 222 221 218 228 242 254 256 189 175 226 184 172 180 217 192 187 185 190 196 194 189 192 184 196 188 184 180 181 188 191 186 179 185 191 219 228 227 215 182 167 188 177
222 218 225 222 219 218 234 242 251 256 188 202 219 214 187 179 187 193 193 188 194 196 198 185 189 194 192 186 182 182 183 188 184 191 181 214 236 237 242 198 145 164 179 189
224 235 209 225 220 220 226 233 250 261 182 189 222 224 210 218 189 193 192 200 192 194 194 192 187 190 198 189 182 179 180 185 186 197 194 205 198 223 219 221 207 177 175 203
225 222 234 211 224 222 230 228 238 252 243 195 218 246 246 209 191 191 193 198 203 190 195 197 188 189 194 191 182 180 180 185 187 192 208 199 192 212 232 225 120 146 174 172
237 230 225 234 216 230 231 240 247 244 250 243 222 217 242 204 193 254 201 197 198 197 190 193 189 186 190 194 184 184 178 186 189 189 198 216 189 220 221 181 149 161 159 176
232 234 234 223 232 213 230 226 235 239 238 246 226 209 212 245 198 207 212 245 188 192 191 188 188 187 187 190 186 182 180 184 188 194 194 206 206 216 224 213 164 172 195 175
219 226 226 217 223 224 214 227 225 229 230 241 235 243 217 203 186 187 192 211 188 183 192 189 190 189 188 187 186 185 182 183 187 193 198 198 206 210 212 215 194 193 195 186
217 226 224 224 215 223 219 225 229 237 240 246 239 227 236 230 181 177 198 231 204 187 183 189 188 189 185 187 188 185 179 183 188 190 196 197 199 205 207 205 214 192 218 177
237 247 213 216 224 220 229 218 223 234 239 242 244 253 216 223 170 195 194 227 217 229 176 183 185 186 186 185 188 185 184 184 187 190 194 199 196 201 211 202 204 206 196 216
228 245 239 205 205 221 213 229 235 231 239 247 243 246 240 208 203 195 185 204 215 219 181 185 184 182 181 184 185 190 188 184 188 192 194 197 200 200 206 216 201 194 204 194
214 228 240 240 213 213 219 214 226 238 230 234 251 249 237 237 212 190 204 213 213 227 197 184 180 178 178 185 186 190 191 191 190 191 195 198 198 202 204 209 215 198 194 185
208 219 228 239 242 221 213 224 226 232 249 252 238 246 257 123 146 259 200 213 217 205 193 181 183 178 182 184 187 190 192 196 192 193 195 197 202 201 206 204 207 203 196 196
205 221 220 231 228 221 219 219 222 227 231 239 247 236 256 176 190 218 199 212 220 222 146 172 188 182 187 185 185 189 191 195 195 193 197 200 201 204 206 205 203 206 200 198
218 237 238 221 246 229 233 218 223 223 238 239 240 241 230 251 221 190 180 181 243 225 166 178 193 189 186 185 186 187 189 192 195 194 197 202 205 204 205 206 205 204 204 201
221 230 251 240 225 239 242 228 230 221 227 242 250 248 252 248 254 254 173 236 205 205 197 177 191 198 190 186 186 190 189 190 195 196 198 201 201 202 205 205 205 199 207 203
203 224 229 238 237 241 237 238 237 223 223 230 239 250 257 261 263 268 241 247 233 202 214 193 185 200 210 192 186 188 193 186 193 196 195 199 198 197 201 201 199 206 205 202
207 206 229 235 230 237 244 230 234 251 246 225 225 230 242 260 269 273 273 263 253 208 209 213 225 194 197 209 186 187 188 193 190 195 192 195 196 194 194 196 202 202 200 199
224 195 223 224 227 240 247 235 226 234 237 247 274 314 266 229 241 258 260 254 257 262 250 203 220 232 187 195 192 186 185 191 195 192 195 194 190 187 186 193 197 198 200 198
231 201 226 218 225 224 230 223 140 113 231 339 337 320 308 331 288 282 238 251 250 254 254 256 243 223 172 184 185 183 188 187 196 201 193 188 179 172 183 184 187 192 174 178
221 222 221 227 226 237 254 144 154 201 210 78 2 333 311 300 287 304 300 269 274 253 240 244 248 171 174 176 181 180 186 190 194 195 175 174 172 175 173 169 161 152 161 171
215 215 232 223 215 224 121 168 227 350 110 34 326 314 310 304 294 280 278 283 283 312 241 186 158 164 160 169 174 172 177 166 167 167 162 163 159 163 157 146 145 141 149 153
246 242 241 241 237 137 133 111 116 132 105 38 18 351 305 292 289 271 179 111 204 71 11 146 113 109 123 155 151 159 149 144 148 145 144 145 143 116 120 127 132 139 146 149
273 16 271 233 215 123 114 131 117 104 84 58 36 42 28 358 38 59 93 127 110 102 127 85 103 109 103 113 124 126 131 137 137 132 120 109 114 110 110 111 139 143 156 166
316 320 315 241 140 116 116 108 102 94 91 77 57 55 62 54 29 44 52 55 66 67 64 70 86 98 98 103 108 111 116 119 111 111 114 111 111 109 104 98 115 145 134 178
341 328 336 312 334 121 113 99 88 81 78 78 75 62 62 70 58 24 25 38 63 66 70 78 83 93 97 98 103 110 110 113 120 120 123 124 120 129 128 128 107 61 92 111